Back to catalog

STARLINK-2408

AliveCommunicationsVLEO
NORAD 47823·PAYLOAD·🇺🇸 United States

Launched Mar 11, 2021 from Cape Canaveral Space Force Station

Loading…

Next Passes (next 24 hours)

TLE

FreshSource: CelesTrak SupGP

Epoch: Sep 14, 2026, 20:38 UTC

1 47823C 21018AN  26257.86020833 -.00005946  00000+0 -19116-3 0  2571
2 47823  53.1570  97.7040 0001100  98.8803 327.6194 15.31715762    13

Track STARLINK-2408 in real time with AllMySat

Download on the App Store